CAPE
1829 1966 2115 1968 2273 2333 2493 2124 2066 1794 1768 1785 1900 2016 1981 1796 2059 2352 2519 2520 2349 1918 1326 1238 1233 1016 1460 1472 1823 2138 1814 2137 2310 2530 2560 1970 2401 3232 3080 3386 3090 3195 3343 3118 2792 2228 1932 1634 1386 1222 1292 1335 1369 1379 1421 1638 1545 1422 1382 1342 1371 1307 1319 1340 1414 1459 1483 1394 1354 1320 1312 1241 1239 1234 1238 1248 1202 1290 1327 1334 1413 1480 1516 1604 1645
2018 2448 1850 2047 2198 2163 1946 2125 2130 1776 1158 1582 1790 1353 1801 1187 1808 1194 2203 2305 2243 1707 1416 874 1304 1327 1397 1449 1372 1174 1429 1860 1928 2286 2589 2551 2130 2526 3799 3346 3204 3252 3258 3278 3236 2583 2140 1996 1681 1354 1290 1336 1460 1450 1303 1481 1511 1400 1323 1361 1370 1406 1364 1436 1447 1486 1569 1637 1594 1602 1466 1409 1352 1342 1291 1256 1226 1203 1247 1276 1302 1448 1633 1667 1748
2306 1958 2000 2313 2206 2172 2196 2179 1983 2002 2018 1752 1790 1440 1056 1501 2030 2171 2064 2115 2286 2283 1653 1361 1158 1254 1384 1436 1659 1408 1240 1264 1670 2128 2228 2240 2172 2312 3099 3859 3730 3416 3471 3527 3452 2937 2443 2233 2012 1742 1438 1402 1513 1502 1372 1424 1519 1584 1539 1466 1487 1434 1413 1414 1474 1526 1525 1556 1653 1715 1688 1581 1534 1530 1434 1402 1394 1282 1476 1496 1364 1456 1515 1443 1452
2572 2983 2800 2489 2542 2686 2634 2345 2211 2125 2288 1886 1612 1586 1624 1860 1724 2270 2433 1996 1875 1639 1982 1489 1499 1426 1383 1594 1616 1660 1606 1538 1541 1585 1657 1857 2063 2202 3203 3064 3597 3627 3538 3554 3534 3379 2896 2390 2159 1995 1728 1564 1598 1591 1472 1472 1586 1641 1604 1513 1638 1556 1483 1462 1528 1545 1580 1556 1581 1678 1704 1784 1825 1794 1743 1653 1576 1489 1434 1440 1438 1575 1615 1596 1630
2813 3152 2614 2647 2890 1997 2399 2617 2602 2483 2639 2144 1606 1830 1744 1550 1103 1862 2736 1814 1120 1886 2088 1755 1344 1293 1328 1299 1114 1644 1706 1598 1586 1642 1718 1798 1852 2031 2297 2794 3317 3722 3656 3454 3424 3381 3370 2898 2377 2177 1938 1711 1680 1704 1590 1542 1686 1697 1681 1696 1728 1694 1667 1562 1591 1657 1586 1602 1613 1583 1683 1845 1932 1955 1944 1864 1720 1713 1648 1663 1702 1786 1876 1869 1896
2849 2785 2827 2608 2467 3012 2855 2672 2802 2796 2950 2537 2050 1766 1709 1552 1150 1320 1485 2268 2250 1296 1575 1729 1687 1624 1578 1518 1541 907 1612 1812 1722 1606 1688 1604 1494 1834 2047 2393 3046 3336 3558 3662 3560 3480 3417 3382 2930 2475 2198 1981 1893 1839 1749 1726 1720 1795 1790 1785 1771 1790 1850 1811 1741 1709 1728 1716 1647 1737 1703 1711 1806 1890 1893 1902 1938 1938 1960 1852 1924 1911 1974 1958 2028
3644 4025 3300 3098 2849 2746 2808 2914 2865 3082 3116 2649 2217 1850 1769 1826 1860 1841 1572 1282 2014 2198 2026 1550 1457 1385 1757 1910 1919 1458 1666 1676 1777 1869 1813 1936 1357 1802 1677 1982 2552 3074 3174 3117 3582 3543 3466 3428 3313 3022 2506 2248 2067 1996 1964 1906 1879 1897 1893 1886 1817 1796 1861 1914 1915 1920 1890 1843 1793 1810 1895 1824 1833 1816 1867 1924 1955 1967 1973 2076 2086 2176 2208 2132 2097
3862 3922 3842 3150 3041 3026 2989 3193 3285 3296 3046 2819 2668 2321 1781 1396 1467 1704 1447 1580 1483 1783 1339 1575 1535 1566 1438 1862 1857 1814 1238 1615 1928 1690 1759 1858 1920 1862 1879 1895 1966 2636 2974 2797 3322 3158 3394 3353 3437 3342 3058 2570 2290 2166 2103 2116 2078 2057 2033 1949 1882 1870 1847 1928 2016 2061 2039 2013 2006 2011 2006 2055 2044 1942 1939 2060 2120 2079 2076 2139 2161 2175 2161 2197 2250
4388 4361 4156 3586 3334 3424 3404 3316 3387 3413 3086 3248 2502 2061 1885 1488 1876 1798 1638 1510 1831 1364 1308 1377 1689 1983 1836 1481 1816 1744 1844 1667 1824 1746 1705 1891 1921 1917 1972 1959 1603 1931 2384 1906 2966 3172 3251 3125 3381 3432 3329 3115 2686 2368 2247 2178 2154 2127 2081 2086 2039 2060 2077 2065 2137 2156 2142 2145 2116 2094 2096 2140 2192 2206 2207 2194 2190 2266 2253 2210 2219 2221 2233 2312 2388
4628 4399 4174 3357 3093 2913 3026 3170 2400 2366 2850 3267 2976 2653 2530 2376 2197 2018 2149 1820 1758 1752 1623 1342 1068 1400 1818 1848 1732 2082 2112 1962 2378 1657 1697 1828 1981 1896 1985 2039 1933 1654 1694 1836 1513 2424 3320 3301 2920 3440 3403 3348 3168 2857 2530 2410 2278 2258 2237 2167 2178 2169 2250 2244 2252 2412 2289 2203 2186 2238 2294 2323 2333 2364 2284 2204 2168 2240 2278 2342 2420 2481 2464 2456 2500
2793 2862 2734 2767 2743 2710 2786 2694 2840 3059 2470 2313 2336 2822 2984 2966 2794 2342 2294 2508 2858 2784 2348 1970 1539 1532 1452 1561 2283 2406 2315 1989 2277 1323 1793 1167 1464 2017 1924 1992 1567 1816 1910 1796 1454 1662 2446 3218 3300 3102 3058 3294 3249 3106 2848 2534 2423 2395 2432 2418 2402 2386 2328 2230 2222 2432 2284 2382 2468 2502 2498 2473 2436 2360 2287 2312 2261 2337 2448 2464 2450 2563 2562 2590 2693
2680 3045 3135 3081 2905 2704 2749 2908 2769 2930 2851 2159 2145 2306 2796 2936 2720 2006 2128 2160 2253 1962 1598 1839 1994 1858 1769 2120 2037 1785 1451 1624 2266 1964 1978 2192 1523 1608 1600 1902 1622 1541 1655 2148 1738 1253 1734 3182 3634 3228 2989 2988 3204 3174 3088 2912 2713 2618 2612 2634 2554 2534 2508 2379 2176 2266 2179 2266 2474 2608 2581 2571 2575 2541 2526 2476 2445 2427 2461 2460 2454 2506 2527 2652 2680
2267 2652 2938 2898 2710 2791 2811 2798 2848 2624 3033 2525 2177 2328 2970 2766 2104 1621 1655 1562 1416 2049 2104 1487 1926 1664 1675 1859 1518 1458 1378 1441 1868 1947 1610 1741 1637 1344 1382 1592 1594 1872 1798 1795 1906 1850 1315 2078 3086 3030 2890 2770 3157 3190 3270 3167 2932 2788 2706 2678 2640 2612 2546 2466 2336 2292 2206 2232 2292 2527 2573 2507 2523 2633 2602 2584 2522 2464 2434 2388 2334 2379 2478 2585 2575
2557 2578 2721 2641 2787 2319 2136 1870 1953 3249 3300 3040 2746 2625 2655 2458 1918 1447 1398 1424 1253 1179 1350 1873 1770 1309 1334 1518 1688 1663 1656 1488 1370 1353 1606 1133 1752 1488 824 1012 1411 1513 1640 1937 2095 2198 1885 1504 2593 2983 3044 2597 3123 3233 3245 3183 3035 2834 2812 2867 2907 2870 2772 2630 2573 2402 2296 2327 2449 2611 2663 2540 2427 2434 2535 2557 2510 2480 2410 2354 2320 2324 2379 2458 2528
1958 2350 2842 2593 2449 2446 1872 2098 2522 2348 3010 3000 2732 2622 2688 2426 1944 1626 1836 1474 1161 1155 1508 1828 1877 1676 1158 1092 1282 1241 1676 1284 1046 1363 1608 1200 1094 1374 954 983 792 1316 1264 1176 1390 2341 1692 1580 1758 2409 2693 2876 2964 3009 3314 3288 2977 3022 2762 2740 2856 2987 3045 2902 2700 2653 2637 2560 2617 2725 2786 2681 2600 2531 2512 2464 2438 2407 2414 2378 2350 2308 2270 2362 2390
1020 827 773 872 1085 1277 1370 1603 1887 2009 2026 2462 2564 2216 2394 2077 1512 1521 1502 1608 1124 1294 1591 2034 1845 1460 916 1133 1322 796 733 1018 1541 1972 1524 1755 1210 861 1121 1248 883 1203 1334 1507 1276 1866 1977 1800 1338 1989 2704 3157 3073 2923 3240 3008 3020 3137 3271 2801 2594 2654 2996 3136 3012 2797 2892 2896 2953 2880 2736 2722 2666 2564 2626 2551 2485 2458 2377 2377 2377 2353 2292 2299 2328
897 856 837 816 1061 1313 1589 1758 1780 1936 2512 2613 2014 2195 2154 1624 1398 1264 1257 1379 1295 1558 2316 2096 1496 1239 1160 654 894 1072 780 771 390 1510 1438 1591 1939 1445 1263 919 988 1061 1324 1368 1471 1514 1955 2313 2308 1634 2333 3173 3245 2955 3190 3145 2861 3155 3240 3412 2923 2466 2549 2958 3170 3223 3156 3071 3126 3098 2816 2674 2699 2696 2696 2690 2618 2552 2486 2387 2362 2331 2315 2280 2297
826 799 763 802 1008 1324 1420 1419 1547 1759 2126 2254 2052 1609 1777 1181 1378 1510 1841 2522 1784 2091 2347 1559 975 1145 790 716 780 722 657 1138 1620 1534 1677 1216 2019 2259 1587 1798 2691 2052 2280 1672 1078 1714 1757 1754 1952 2362 2012 2191 2882 2966 2717 2861 3244 3347 3282 3376 3374 2674 2464 2541 3008 3305 3377 3481 3398 3348 3120 2806 2779 2774 2785 2737 2857 2704 2638 2518 2410 2385 2374 2350 2357
805 775 752 795 1009 1176 1270 1266 1231 1391 1816 1791 1698 1871 1678 1307 1351 1512 1933 2288 2276 2172 1702 1569 1702 1287 798 873 1090 1206 1024 810 956 796 685 1699 2107 1520 1399 1428 2282 2742 1786 1623 1399 1045 2159 870 1505 1756 2366 2076 2084 2487 2542 2294 2090 2678 3154 2812 3077 2906 2690 2558 2577 3093 3449 3483 3532 3513 3453 3346 2996 2869 2841 2731 2827 2884 2730 2752 2610 2539 2458 2420 2388
716 796 774 720 928 1213 1250 1298 1868 1964 1932 1958 2011 1644 1033 1176 1237 1826 1970 2027 1980 2020 1474 1522 1772 1275 1088 868 936 1034 1090 814 848 703 514 522 786 1064 1004 1200 2076 2020 1565 1593 1482 1463 1986 2644 2018 946 1576 2331 2230 2279 2281 2640 2445 2190 2038 2532 2918 2951 2692 2542 2663 2675 3162 3454 3442 3471 3548 3551 3505 3194 2924 3019 2841 3019 2922 2872 2915 2760 2634 2614 2582
493 500 568 715 869 1159 1652 1837 1772 1946 1746 1714 1776 1601 1317 1555 1623 1997 2047 2026 1954 1957 1616 1729 1629 1568 1459 1498 1516 1316 879 840 771 684 200 456 906 754 1104 822 1040 1078 1400 1477 2141 2663 2120 2760 2712 1809 1512 1780 2363 2822 2352 2241 2268 2669 2279 2372 2579 2953 2672 2368 2367 2824 2839 3176 3284 3390 3510 3588 3507 3483 3590 3521 3493 3459 3351 3143 3189 3131 2976 2838 2812
568 472 643 703 692 1000 1156 1190 1166 1429 1392 1377 1437 1624 1692 1498 1714 1255 1206 1106 1740 1772 1420 1294 1610 1680 953 666 553 736 768 662 558 522 537 592 676 746 706 557 1342 1701 1166 978 2156 1922 2197 2173 2234 2002 2269 2295 1548 2877 2925 2414 2412 2046 2178 2382 2486 2595 2676 2325 2273 2590 2819 2746 2970 3198 3364 3482 3637 3544 3514 3619 3668 3684 3611 3657 3530 3354 3360 3330 3221
477 460 602 660 680 703 700 868 1014 1156 1437 1682 1629 1348 1040 1084 1244 1315 975 1318 1283 1089 928 897 1176 1609 1455 1288 951 777 968 909 633 590 476 322 686 721 750 636 557 888 1828 1694 1119 1431 2117 2633 2201 1487 1278 1423 1922 1809 2608 2847 2140 1777 1992 2268 2458 2221 2260 2354 2256 2415 2510 2523 2686 2931 3259 3386 3469 3568 3682 3669 3695 3696 3746 3755 3822 3674 3582 3621 3589
524 489 433 264 414 536 772 859 1007 1428 1299 1398 1334 1428 1045 1106 1178 1618 1726 1581 1507 1033 1210 989 714 734 610 1182 1455 646 1114 1152 993 916 520 615 926 982 611 1026 930 812 704 1347 1398 2392 2635 2444 2394 2011 1119 1161 1616 1926 2254 2523 2602 2026 2174 1983 1950 2127 2009 2057 2119 2191 2258 2284 2276 2448 2818 3121 3342 3540 3779 3859 3863 3755 3882 4004 3874 3879 3855 3744 3630
423 385 352 290 421 491 670 982 968 1260 1199 1117 1069 1125 1401 1368 1445 1476 1679 1666 1564 1192 910 938 1094 1145 590 612 1135 700 787 1390 1174 679 764 1010 552 504 386 847 549 480 669 882 1306 682 1659 1897 2236 1520 1422 1234 1200 2271 2278 2078 2216 2226 2176 1891 1379 1762 1983 1962 1929 1880 1917 1941 1923 1964 2088 2268 2498 2780 3074 3359 3583 3716 3915 3968 4020 3740 3701 3662 3567
313 436 412 416 409 351 450 564 848 1434 1878 1814 1684 1689 1530 1536 1363 1496 1529 1446 1506 1416 1406 1276 1331 1355 1347 1410 1154 584 565 854 1354 1152 1031 944 1008 744 754 804 555 409 734 576 1110 1544 1664 1828 1640 1788 1444 1332 979 1730 2371 1959 1644 1781 2101 1878 1988 1411 1570 1829 1866 1860 1797 1767 1718 1681 1653 1692 1842 2038 2246 2464 2726 2988 3276 3519 3652 3653 3642 3560 3416
516 490 522 526 472 480 472 502 506 1104 1789 1802 1211 730 931 942 870 1317 1254 1230 1161 1246 1181 1288 1166 780 685 648 800 598 1303 1268 1218 1281 953 711 915 1237 1472 739 592 392 498 433 439 709 1052 1666 1853 1275 1267 1369 1124 1410 2243 2174 1727 1711 2175 2576 2021 1485 1331 1374 1634 1688 1735 1711 1695 1638 1560 1488 1408 1479 1602 1774 1902 2201 2442 2636 2834 2898 2980 2928 2928
573 596 552 518 562 568 506 428 452 687 842 946 1217 609 559 608 764 961 1150 931 849 839 1051 1164 1123 844 930 1039 779 700 625 647 667 407 1107 780 544 664 507 1154 409 432 587 331 120 251 636 1038 1246 1246 1151 1174 1412 1560 1271 1161 1418 1719 2364 2621 2468 2026 1506 1294 1278 1384 1494 1582 1612 1577 1529 1457 1392 1313 1289 1308 1388 1452 1593 1784 1898 1968 1964 1946 1962
539 433 505 577 672 581 546 474 528 752 774 754 732 798 868 879 710 995 1201 1026 802 688 1009 1100 962 762 990 790 977 918 888 662 578 663 676 344 296 539 697 442 410 441 417 236 330 347 319 276 511 1238 1162 1976 1909 1473 1340 1600 1341 1498 1717 1901 1959 2333 1879 1424 1313 1168 1186 1210 1252 1308 1298 1282 1273 1260 1204 1158 1150 1159 1186 1242 1325 1368 1366 1336 1341
413 541 578 637 560 544 570 568 735 820 766 912 1019 1172 1238 1260 940 1002 878 888 871 966 1158 1032 1006 1034 1054 1004 948 698 958 1112 832 479 682 819 648 548 505 461 370 332 496 328 304 407 485 430 156 651 2014 1756 2019 1332 2437 2532 1975 2412 1735 1692 1764 1792 1430 1532 1424 1275 1160 1069 998 977 952 968 977 990 970 960 962 997 1024 1056 1050 1014 986 960 977
386 443 536 491 456 460 482 449 478 232 363 500 611 599 924 1042 933 766 695 874 1022 987 1036 812 686 566 680 784 726 1130 1252 910 946 1127 896 603 267 194 276 377 399 400 421 302 322 419 429 489 399 114 707 1654 1159 1039 1224 2504 2132 2128 2013 1918 1812 1482 1337 1716 1277 1303 1214 1018 954 898 872 813 776 704 673 672 710 758 799 822 803 783 749 736 751
244 260 338 429 486 539 462 269 292 248 340 401 388 562 787 1029 1132 1076 818 950 1152 1172 1035 914 608 425 372 468 653 646 594 873 1220 1212 1304 1000 718 560 541 697 753 550 492 391 441 276 415 448 504 586 499 594 628 778 1408 1630 2385 1962 2274 2061 2126 1485 2316 1859 1450 1300 1458 1468 1335 1202 1013 891 801 705 102 95 2 18 93 182 166 184 218 262 287
292 230 232 323 479 537 596 716 636 702 721 769 858 1070 1118 1064 1173 1142 1088 1046 1128 1117 1020 963 740 406 528 706 784 610 354 293 370 413 812 938 960 953 729 494 453 484 534 447 692 466 571 596 510 410 266 498 294 374 553 1417 2393 2242 1983 2056 2115 2079 1805 1760 1969 1585 1542 1652 1623 1522 1417 1297 1131 940 761 312 0 0 10 40 19 3 20 17 22
189 155 224 259 286 526 696 893 936 966 990 1034 847 810 852 1102 1249 898 790 1053 1108 1059 978 848 521 426 390 401 425 462 456 330 338 402 375 319 402 580 723 532 561 396 495 374 159 583 426 694 640 624 444 225 268 534 508 774 1741 2178 2670 2313 2466 2659 2225 1734 1434 2505 1836 1809 1798 1724 1652 1535 1384 1196 989 800 0 0 0 0 0 0 0 0 0
198 173 182 247 400 594 820 1001 1044 1086 1121 1172 842 750 826 1070 1351 1151 982 1066 1048 979 886 588 424 421 404 384 394 426 216 177 139 175 202 167 266 514 624 632 572 612 442 310 325 196 526 648 736 696 660 664 478 575 696 754 1620 2161 1950 2767 2586 2136 2005 2235 2072 2403 2240 2010 1857 1772 1648 1536 1446 1295 1078 853 0 0 0 0 0 0 0 0 615
24 115 197 277 346 408 630 1007 1088 1384 1383 1470 1515 954 797 1072 1297 1387 1264 1124 962 871 748 614 451 423 431 484 387 192 74 5 3 15 40 54 20 75 498 681 584 837 778 374 217 230 382 650 749 622 524 610 712 758 692 865 1043 2058 2266 2719 2851 2590 2488 2041 2386 2582 1896 1561 2021 1828 1641 1534 1385 1230 1011 546 0 0 0 0 0 0 40 732 818
28 36 19 46 115 290 739 1060 1100 1215 1380 1247 956 925 1151 1278 1337 1286 1373 1158 962 903 756 580 456 331 459 683 349 95 8 1 2 4 12 13 6 18 137 198 540 490 448 399 492 611 286 407 575 684 590 615 646 821 897 908 1188 2246 1664 1657 1965 2610 2292 2071 1976 2284 2196 1874 2118 2022 1854 1511 1255 1012 790 0 0 0 0 89 450 771 807 810 848
0 0 0 0 17 194 476 1134 1656 1606 1570 1522 1957 1929 1750 1318 1162 1237 1235 1088 960 975 783 439 370 430 617 583 229 98 42 21 10 3 2 2 2 8 12 155 109 190 614 391 284 192 146 478 590 557 690 614 758 878 976 1207 1267 1676 1798 1568 1382 2259 2078 2090 2107 2072 2020 1690 1909 1914 1816 1495 1041 789 23 0 35 116 607 792 796 771 768 812 827
0 0 0 6 11 96 316 828 932 974 1304 1236 1528 1849 1843 1798 1686 1575 1452 1232 1186 884 628 540 476 548 604 476 196 57 81 30 9 1 2 4 5 16 26 49 90 180 290 757 349 168 164 660 627 515 451 566 648 626 1017 1804 1412 1729 1429 1523 1258 2364 2493 2392 2117 1976 1218 1776 2414 2236 1984 1652 1212 770 644 704 728 739 781 793 786 765 766 780 792
0 0 0 4 20 88 268 314 446 776 946 1150 1482 1510 1574 1737 1618 1356 1333 1125 1010 668 678 616 550 477 496 321 129 109 105 67 46 16 2 6 7 20 22 25 93 184 62 125 288 109 37 420 508 517 398 452 396 488 1121 572 1718 1629 1284 766 925 1113 2039 2079 2104 2171 1692 1916 3089 2737 2326 1912 1613 1160 759 686 696 525 753 782 772 774 755 728 686
1 0 6 21 98 182 277 384 685 811 1230 1267 1374 1582 1640 1711 1210 722 736 828 832 791 784 788 740 676 384 272 201 119 139 74 36 22 3 0 2 20 4 8 11 16 34 39 200 243 716 570 456 482 421 692 428 396 717 628 414 1092 1583 1113 907 1063 1522 1774 2019 2105 2340 2522 1965 1653 1754 2099 2342 2271 1704 1326 892 639 709 754 700 688 706 615 93
13 46 135 173 154 141 232 392 738 947 1260 1258 1081 985 1184 1597 1161 893 827 842 814 895 897 963 992 633 390 326 336 186 94 80 63 40 10 0 1 5 7 9 7 12 10 18 32 65 206 758 564 313 584 150 234 213 396 679 757 1432 1687 1740 1381 895 1586 1597 2127 1860 2342 2389 1720 1526 1994 2489 2608 2842 2730 2439 2370 1245 1155 916 838 760 646 516 458
123 168 195 149 106 168 332 532 783 914 908 1046 530 868 1028 1200 1116 1056 877 872 802 686 772 1035 1190 938 499 329 377 322 207 147 152 74 36 0 0 0 18 20 10 0 4 3 10 62 51 177 202 541 520 217 319 366 564 739 550 796 912 581 893 1221 962 968 1548 2285 2602 2019 1676 1526 1735 2357 2892 2905 2726 2520 2556 2928 2131 1930 1034 832 711 593 519
147 120 170 188 255 326 522 766 846 858 924 995 727 969 1109 1152 984 1113 908 804 656 625 698 806 1104 1147 799 572 513 492 435 416 215 146 118 45 13 4 4 9 10 12 3 0 2 10 27 50 297 507 485 272 349 571 358 602 516 684 1259 1262 1361 1081 1122 1192 1216 1344 2320 2036 1917 1691 1468 1594 1752 2882 3131 2724 2494 2620 2637 2310 1688 1045 721 598 455
102 212 226 242 313 498 552 710 725 735 822 558 800 919 1020 1024 1025 872 978 968 739 620 659 928 954 943 951 848 725 628 586 330 474 263 185 92 33 0 0 0 4 2 1 2 0 0 11 217 122 268 366 198 204 314 316 459 531 434 1001 673 964 1024 1130 1108 1316 782 2647 1693 1756 1267 937 992 1474 2059 2454 2754 2483 2694 2407 2322 2170 1796 1330 849 540
186 246 222 211 216 238 301 454 488 550 634 736 652 769 904 1050 1057 908 1122 1031 894 952 958 756 752 1232 1114 995 788 722 670 596 431 370 223 114 54 23 6 0 4 2 0 0 0 0 0 3 56 89 144 178 362 423 554 601 759 768 686 644 824 881 1691 1149 1217 1343 2224 1669 1729 1060 987 1016 1866 2415 2156 2037 2044 1995 2468 2337 1998 1806 1548 1254 972
220 419 276 183 180 192 184 197 320 403 643 387 503 670 822 920 999 807 1108 1088 962 1194 962 948 763 856 1083 1016 923 877 804 702 598 295 202 153 96 46 18 2 2 3 3 1 0 1 12 1 0 18 78 242 446 350 386 729 964 1124 771 598 982 1260 959 1288 1198 1060 1575 2658 1894 1380 1482 1425 1690 1294 1344 1626 1739 1941 2280 2003 1836 1641 1437 1190 1037
313 310 280 192 92 156 246 295 428 508 584 560 512 441 642 819 834 913 1224 1240 1126 1218 1142 779 750 1334 1187 1204 1032 903 847 701 452 252 200 154 97 48 30 0 1 1 3 0 0 0 0 0 18 50 38 54 77 478 538 494 806 1105 884 678 1014 1589 1076 750 692 720 1022 1404 2342 1947 1540 1477 1596 1489 1784 1654 1364 1621 2051 2064 1824 1698 1418 1000 820
380 317 242 144 174 178 437 466 388 655 783 770 472 489 583 713 608 1276 1167 1301 1173 832 831 1035 1033 1266 1391 1322 1131 984 917 721 413 230 194 155 68 60 54 12 0 4 2 0 1 0 0 0 0 0 8 0 0 0 24 136 220 736 919 939 538 406 715 628 560 565 724 970 1880 1960 1563 1274 1236 1211 1329 1705 1662 1613 1915 2267 2088 1632 1347 918 722
261 394 305 292 468 458 396 505 506 453 303 291 332 402 611 670 796 1368 1178 1244 1055 1102 718 637 796 1356 1426 1028 924 912 917 806 409 256 230 136 60 61 44 29 2 7 1 0 0 1 0 0 0 0 0 0 0 0 0 12 138 133 675 586 528 518 390 662 271 578 516 356 1206 1556 1684 1225 1125 1078 1356 1488 1761 1835 1588 1894 2094 1352 1083 778 676
512 474 347 342 375 421 292 383 198 186 466 659 534 475 511 672 716 1485 1434 1388 1134 802 442 536 583 534 512 868 1038 986 920 675 401 296 199 77 100 90 61 36 14 4 2 0 1 0 0 2 2 12 14 0 0 0 17 0 0 18 400 660 706 777 258 788 347 682 510 455 666 1648 1172 926 1097 1015 1353 1668 1452 1629 1509 1647 1953 1449 1108 945 783
Wind_Speed
13 17 10 11 13 13 16 18 18 14 16 14 14 14 13 12 11 13 13 13 14 15 14 13 14 13 14 13 12 13 14 16 20 19 18 19 19 18 18 17 14 13 12 10 8 8 8 7 7 7 7 5 6 7 8 6 6 7 8 9 9 8 8 8 8 8 8 8 9 9 10 10 10 10 9 9 9 9 9 9 10 11 11 11 12
13 19 11 12 11 13 12 14 20 19 17 16 16 13 15 14 14 13 13 14 14 15 16 15 15 16 15 16 14 12 13 15 18 20 20 19 21 17 18 19 17 14 13 12 10 10 9 8 7 7 7 7 6 6 8 7 6 6 6 7 8 8 8 8 8 8 8 8 9 9 10 10 11 11 10 10 10 10 9 10 11 12 12 12 12
11 13 15 16 17 13 15 18 20 20 20 19 16 13 13 13 15 15 15 15 16 19 18 15 16 16 16 16 17 15 13 12 15 19 21 22 19 22 18 20 19 16 15 13 13 12 11 10 9 8 8 8 7 6 7 8 6 5 5 6 6 7 8 8 8 8 8 8 8 9 9 10 11 11 10 10 10 10 10 11 11 12 13 14 14
13 14 15 15 18 18 19 21 21 21 21 22 23 21 15 13 13 15 15 16 16 16 16 15 16 16 15 15 16 17 16 13 11 15 20 22 22 24 23 20 18 19 17 15 14 14 13 12 11 10 9 9 9 7 6 7 7 6 5 5 5 6 6 7 8 8 8 8 8 8 9 9 10 11 10 10 11 11 11 11 12 13 14 15 15
18 17 17 17 18 20 17 19 21 22 24 24 24 21 19 17 14 12 16 18 16 15 15 15 16 16 15 14 14 17 18 15 13 11 15 21 23 24 23 23 21 19 19 17 16 14 14 13 13 12 11 10 10 9 7 7 7 7 6 5 4 4 5 6 7 8 8 8 7 7 8 9 10 10 10 10 10 11 11 12 13 13 15 15 16
18 18 18 19 19 20 19 19 20 21 24 27 26 24 22 23 18 12 13 18 18 16 16 16 17 18 18 15 17 16 17 17 15 12 12 16 22 25 23 26 24 23 21 20 18 17 15 15 14 13 13 12 11 10 10 8 6 6 6 5 4 4 4 5 6 7 7 7 7 7 8 8 9 9 10 10 10 11 11 12 13 14 15 15 16
19 19 19 19 19 19 19 19 19 22 25 26 25 24 24 24 23 19 16 15 16 19 19 18 17 18 21 20 19 18 17 16 16 14 13 14 17 22 27 25 28 26 24 24 21 18 18 16 15 15 14 14 13 11 11 10 8 7 6 6 5 4 3 3 4 5 5 6 7 7 7 7 8 9 9 9 9 10 11 12 12 13 14 15 16
21 21 21 21 21 20 20 20 20 20 21 24 25 25 25 24 23 23 21 17 15 17 19 19 19 20 22 23 22 20 18 17 18 16 14 14 15 18 24 28 27 31 28 25 26 22 19 18 17 16 16 15 14 13 12 11 11 9 6 5 5 5 5 4 3 3 4 5 6 6 6 7 7 8 8 9 9 10 11 12 12 12 14 14 15
22 23 23 22 22 22 22 22 22 21 21 22 23 25 25 24 23 23 24 21 15 12 17 20 22 23 25 23 24 23 21 19 18 18 17 16 16 16 20 25 28 28 30 24 26 25 22 19 18 17 17 17 16 15 13 12 12 11 9 7 5 4 5 5 4 3 3 3 4 5 5 6 6 7 8 8 9 9 10 11 12 12 13 13 14
22 23 22 22 23 23 23 24 26 21 20 22 21 24 26 26 24 25 24 21 15 15 17 19 19 22 25 26 26 27 26 23 22 18 18 18 19 18 18 23 25 26 27 27 26 25 26 23 19 19 18 18 18 17 15 14 13 12 11 9 7 5 4 4 5 5 3 2 2 2 3 3 4 4 6 8 9 9 10 10 11 11 12 12 13
22 19 18 20 22 23 24 25 28 28 26 21 22 22 24 23 23 23 24 20 19 19 19 21 19 19 22 24 28 30 30 28 27 20 19 18 19 21 20 21 21 24 26 26 27 27 27 28 27 24 22 19 18 18 17 16 15 14 13 12 10 8 5 4 4 6 5 4 2 1 1 2 2 3 5 7 8 8 9 9 11 11 11 11 11
22 24 22 22 22 23 25 27 28 28 30 29 26 24 25 24 22 21 22 21 21 22 22 20 20 17 17 23 29 30 30 30 28 24 20 23 24 23 21 25 22 19 21 25 27 25 27 31 30 28 26 24 19 18 17 17 16 15 14 13 12 10 8 6 4 5 5 5 4 3 2 0 1 2 3 4 5 7 8 8 9 10 11 10 10
17 21 23 23 23 24 24 25 26 28 31 33 29 27 29 28 23 25 25 21 21 22 24 23 20 19 18 23 27 30 29 31 28 26 22 22 24 24 24 23 21 22 21 23 23 26 25 30 33 31 30 30 26 19 18 18 17 17 15 14 13 12 11 9 7 6 5 5 5 5 4 3 1 1 1 2 2 4 6 7 7 8 9 10 10
24 24 25 25 26 26 27 26 28 30 32 32 33 33 31 30 28 26 27 22 22 23 23 22 24 21 21 24 25 28 29 30 26 23 21 20 23 23 22 23 22 21 23 23 23 24 24 25 31 30 31 30 31 27 23 20 18 16 16 15 15 14 13 11 9 8 6 6 5 6 6 5 3 2 0 0 1 1 3 4 6 7 8 9 9
21 21 23 25 26 26 26 28 29 31 34 36 37 36 35 32 30 29 26 27 23 25 25 22 23 27 28 27 24 24 27 28 25 22 24 23 22 20 23 23 21 21 24 23 21 24 22 22 26 30 31 31 31 30 28 25 21 18 16 16 16 15 14 13 11 10 8 7 7 6 7 6 5 4 2 1 1 1 1 2 4 5 6 7 8
21 22 22 22 23 24 26 27 28 29 30 34 38 39 38 35 34 32 29 25 23 23 28 28 28 33 28 28 27 26 21 24 27 29 26 25 23 23 24 26 23 22 25 23 21 25 23 24 20 27 29 30 31 30 29 28 23 20 19 16 16 16 15 13 13 11 10 9 9 8 8 7 6 5 3 3 2 2 1 2 3 4 4 6 7
21 23 23 24 24 25 26 27 28 29 33 34 34 35 38 39 39 35 30 28 26 26 30 31 29 32 31 31 31 28 23 25 29 31 31 29 24 24 27 21 24 24 29 27 24 23 27 25 25 23 26 30 29 29 30 29 28 26 23 19 17 16 16 15 13 12 11 10 9 9 9 8 7 6 4 3 2 2 1 1 2 3 3 4 5
22 23 24 25 25 27 28 29 30 31 32 34 35 35 32 34 32 28 26 31 31 29 28 34 30 30 32 27 27 30 28 33 37 31 35 31 29 31 31 28 30 35 40 40 34 26 25 25 24 24 23 27 28 27 27 29 31 30 28 25 20 18 17 16 15 13 13 11 10 9 9 9 8 6 5 3 4 2 2 2 1 2 2 3 4
21 22 24 25 26 28 29 30 32 33 34 34 35 36 35 33 32 29 31 33 31 29 27 29 34 35 31 29 27 29 28 30 32 36 32 33 32 30 31 32 31 34 36 36 34 25 27 25 21 23 26 24 26 25 25 26 26 30 27 25 24 22 20 18 16 15 14 13 12 11 9 9 9 8 6 5 4 3 3 2 2 1 1 2 2
22 23 25 26 28 29 31 32 34 36 37 37 37 38 34 30 32 31 33 34 32 31 29 30 29 30 34 34 31 29 33 31 30 31 35 33 33 31 31 31 33 33 34 33 30 26 28 30 30 24 23 24 24 25 24 25 26 26 28 27 28 25 23 21 19 17 17 15 14 13 11 10 9 9 8 6 4 5 3 3 3 3 2 2 1
23 24 26 27 29 31 33 34 35 37 38 37 38 40 38 33 31 32 32 33 34 32 31 30 31 30 33 36 36 34 31 32 33 33 35 32 28 26 28 33 33 32 31 31 32 33 31 33 31 26 26 22 24 26 25 25 25 27 26 27 29 28 26 24 21 20 20 18 16 15 14 11 10 9 9 8 8 7 6 4 4 3 4 3 2
24 25 27 29 30 32 34 36 37 38 38 37 35 34 33 31 30 29 29 29 31 32 32 31 32 36 37 36 35 34 36 38 35 33 32 31 30 27 27 32 36 35 31 28 31 32 33 34 32 29 27 27 27 29 26 25 25 25 25 26 28 30 27 26 24 22 20 20 19 17 16 14 12 10 10 9 8 8 7 7 6 4 4 4 3
25 27 28 30 32 33 35 36 38 40 40 39 37 36 34 31 29 31 31 29 31 31 31 30 30 30 31 34 34 37 38 36 35 34 33 34 36 29 27 32 34 35 35 34 30 33 36 37 36 33 29 26 25 30 28 27 23 22 25 27 30 29 29 28 27 25 24 22 21 20 18 17 15 13 12 11 10 8 7 8 8 7 5 5 5
28 29 31 31 32 34 35 37 39 40 40 40 37 36 34 32 29 29 31 31 34 33 31 31 30 28 28 29 34 36 37 36 35 36 36 32 37 35 31 36 41 40 37 36 30 37 39 38 39 38 34 27 23 27 29 29 26 23 25 27 28 29 28 28 27 27 26 24 22 21 20 19 18 16 14 13 12 10 9 9 10 9 8 6 5
30 30 32 32 34 35 36 37 40 41 41 39 38 36 35 34 32 30 30 29 30 29 29 29 29 28 37 29 31 33 34 37 37 35 37 37 40 34 31 34 37 40 37 36 35 38 40 39 40 41 38 32 23 32 32 30 28 26 25 25 29 30 28 28 26 25 25 25 23 22 21 21 20 19 17 15 14 13 12 11 10 10 9 8 7
29 31 32 33 34 35 36 37 38 41 42 40 38 37 35 36 34 32 29 30 30 29 29 26 27 27 31 32 30 31 31 33 36 38 38 37 36 34 33 37 39 36 38 35 32 40 40 40 41 43 41 34 27 28 32 30 27 27 29 24 28 29 30 29 26 25 24 25 24 23 21 21 21 20 19 17 16 15 14 13 11 10 9 9 9
30 32 33 34 35 35 36 36 38 39 41 41 39 37 34 34 34 33 31 30 28 29 29 27 27 28 27 28 30 30 32 32 34 37 39 37 35 36 38 36 39 38 35 34 34 36 38 42 44 42 40 38 29 26 32 33 30 30 33 29 27 28 27 29 28 26 24 24 25 24 22 22 21 21 20 18 17 15 14 14 13 13 13 12 11
32 33 34 35 36 36 36 36 37 39 40 40 38 36 34 34 35 34 31 31 28 26 28 28 27 27 27 30 31 31 32 33 34 32 35 38 38 36 38 40 38 38 37 33 33 38 37 38 43 41 40 36 29 27 29 31 31 29 34 31 29 27 26 26 27 27 25 24 25 26 25 23 22 22 21 20 18 16 16 15 15 15 14 13 12
33 35 35 37 37 37 37 37 37 38 39 40 38 37 35 34 34 34 32 30 29 27 28 29 30 27 28 26 28 30 33 36 37 34 31 33 35 37 40 40 36 37 37 35 34 37 38 36 39 42 39 41 35 28 30 33 31 31 30 28 28 26 26 25 26 26 26 24 24 25 26 25 25 24 23 21 19 18 17 17 16 16 15 14 14
34 36 37 37 38 38 39 38 38 38 39 39 39 37 35 34 34 34 34 33 31 28 28 28 29 29 28 26 26 27 31 37 40 37 34 35 34 37 38 38 37 35 35 35 34 36 38 38 37 42 46 40 38 32 34 36 33 31 29 27 26 25 24 28 25 26 26 25 24 24 26 27 27 26 25 24 22 20 19 18 18 18 17 16 15
36 37 38 39 39 40 40 40 41 40 40 40 40 38 36 34 34 35 35 35 33 30 28 28 30 31 29 27 26 27 29 32 37 40 40 38 36 35 36 37 36 36 31 33 32 34 36 37 38 37 42 44 37 34 33 38 35 32 29 28 26 25 25 30 26 26 27 26 24 24 26 28 29 27 27 26 24 23 21 21 19 19 18 17 17
36 37 38 39 40 40 41 41 40 41 41 41 40 39 36 35 34 35 34 34 33 32 30 28 29 31 30 29 28 29 30 31 34 36 39 41 38 38 38 38 39 38 34 33 33 32 36 37 39 40 38 39 38 36 38 36 39 34 31 29 28 27 30 28 28 25 28 27 25 25 25 28 29 28 28 nan nan nan nan 22 21 20 20 19 18
36 38 39 40 40 42 42 42 41 42 43 42 42 40 37 35 35 34 32 32 33 33 32 29 29 30 31 31 29 29 29 30 33 34 35 38 40 40 41 38 36 37 38 34 33 33 35 37 39 39 38 37 35 36 34 35 38 40 31 29 29 28 28 27 28 27 27 28 27 24 24 26 29 30 29 29 nan nan nan nan nan nan nan nan nan
37 38 40 41 42 42 41 42 42 43 43 43 41 40 36 35 34 34 31 30 30 30 31 30 29 31 32 33 31 30 30 30 32 33 34 35 39 40 40 39 37 37 38 37 30 32 32 37 38 39 37 34 33 35 34 34 33 35 33 31 30 29 29 28 26 30 29 29 27 24 23 24 28 30 30 30 nan nan nan nan nan nan nan nan nan
40 41 41 42 42 42 41 42 43 44 44 43 42 39 36 34 33 31 30 28 28 28 29 29 29 30 30 33 34 33 33 32 32 34 34 34 37 39 38 40 37 37 38 38 34 31 31 34 37 39 39 37 32 32 32 33 35 34 31 31 31 31 31 30 29 31 31 26 26 24 22 24 27 30 31 31 nan nan nan nan nan nan nan nan 28
nan 41 43 44 44 43 42 42 44 44 43 41 40 38 36 34 32 30 28 27 26 26 26 28 28 28 29 32 35 35 nan nan nan nan nan nan nan nan 38 39 39 35 36 38 32 32 34 34 37 39 41 39 35 32 32 33 32 34 36 33 33 33 33 32 32 32 29 23 24 25 25 25 26 29 32 33 nan nan nan nan nan nan nan 30 30
nan nan nan nan 46 44 43 43 43 43 40 39 38 36 36 34 31 29 28 26 24 24 24 26 27 27 28 30 34 nan nan nan nan nan nan nan nan nan 39 39 41 37 34 35 37 39 35 33 36 40 41 37 34 32 32 31 32 36 38 30 32 34 33 33 33 32 26 23 27 27 27 27 26 28 31 nan nan nan nan nan 32 32 31 31 31
nan nan nan nan nan 44 43 43 43 39 37 38 38 35 33 31 29 28 27 25 23 22 22 24 26 28 28 30 32 nan nan nan nan nan nan nan nan nan nan 39 41 40 35 35 36 34 32 34 35 37 39 39 38 35 34 31 32 36 36 35 31 35 35 34 33 34 33 32 34 34 32 30 29 29 nan nan nan 33 33 33 33 33 32 31 31
nan nan nan nan nan nan 44 44 44 40 38 36 36 34 31 30 28 27 26 24 23 22 21 22 24 26 28 30 30 nan nan nan nan nan nan nan nan nan nan nan nan 42 41 39 38 32 33 35 38 37 38 40 40 36 35 35 34 36 38 36 31 35 35 33 34 34 32 30 30 33 33 33 33 33 32 30 31 31 31 33 33 33 32 31 30
nan nan nan nan nan nan 43 42 41 38 36 35 35 33 31 29 27 26 25 23 21 19 20 21 23 25 27 28 30 30 30 nan nan nan nan nan nan nan nan nan nan 43 nan 40 34 32 nan 38 39 38 41 41 39 35 40 35 35 38 38 38 35 32 32 34 35 36 34 35 35 33 32 32 33 32 31 30 29 29 29 32 31 32 30 30 29
nan nan nan nan nan 42 42 42 40 38 37 35 35 33 30 27 26 23 22 21 20 18 19 20 23 24 25 28 30 29 28 nan nan nan nan nan nan nan nan nan nan nan nan nan 40 32 34 39 39 42 42 41 36 34 36 35 32 32 38 36 34 33 34 34 35 35 36 39 37 31 29 29 29 32 34 35 34 30 31 30 33 29 29 29 nan
nan nan 42 42 42 43 41 40 38 36 35 35 38 31 29 27 23 23 21 20 19 19 18 19 22 23 25 27 29 26 nan nan nan nan nan nan nan nan nan nan nan nan nan nan nan nan 33 37 39 43 41 37 35 32 34 34 32 33 36 37 34 34 34 33 34 33 36 38 36 32 30 31 29 30 32 31 32 36 36 36 34 33 31 27 26
41 42 43 42 41 41 39 37 36 34 33 36 43 37 34 30 27 22 21 19 19 18 18 19 22 23 24 25 28 26 21 23 25 nan nan nan nan nan nan nan nan nan nan nan nan nan nan 37 39 41 41 34 32 32 35 36 33 29 35 36 34 35 33 30 30 35 38 38 36 37 34 31 29 30 30 30 31 34 34 33 31 28 28 29 26
42 42 41 41 40 40 39 37 34 31 29 39 42 37 34 33 30 25 22 20 19 19 18 19 22 24 23 25 27 26 22 22 24 24 23 nan nan nan nan nan nan nan nan nan nan nan nan nan 38 37 35 32 32 32 33 35 33 30 34 38 35 35 34 32 31 31 40 41 40 38 33 33 29 29 30 31 31 31 31 29 30 29 27 27 29
41 41 41 41 41 39 37 34 32 29 27 37 39 37 33 32 31 27 23 21 19 18 17 18 21 24 25 27 26 24 23 19 21 23 25 nan nan nan nan nan nan nan nan nan nan nan nan 37 36 38 36 32 32 31 29 31 33 30 33 34 32 34 33 33 32 33 42 43 45 40 36 33 33 29 27 29 28 29 28 27 27 30 29 29 30
41 41 40 39 38 37 35 33 31 28 27 34 38 35 32 31 30 29 23 20 18 19 20 18 19 23 25 27 26 23 20 18 17 20 26 29 nan nan nan nan nan nan nan nan nan nan nan nan nan nan 30 27 29 31 30 32 34 33 36 34 33 33 34 34 35 36 42 45 42 41 37 34 32 30 27 27 29 29 28 28 30 31 33 32 32
40 40 40 38 37 35 32 30 29 28 27 37 37 34 32 31 30 29 23 21 19 21 23 21 21 23 25 27 27 24 21 19 18 16 22 27 nan nan nan nan nan nan nan nan nan nan nan nan nan nan nan 25 23 25 28 34 34 35 37 33 33 36 35 34 36 36 39 41 40 38 34 35 37 34 26 26 28 26 27 30 33 35 34 34 34
40 40 39 37 nan 33 30 29 28 27 26 38 34 32 30 30 31 26 23 21 20 19 21 22 21 23 25 27 28 25 21 18 15 11 17 25 nan nan nan nan nan nan nan nan nan nan nan nan nan nan nan nan nan 22 27 30 35 35 34 33 37 43 41 35 32 36 37 37 36 35 36 36 36 33 31 28 27 25 26 28 32 34 35 36 35
40 39 36 34 33 31 28 28 28 26 23 30 32 30 29 29 29 24 21 20 18 16 15 18 19 21 25 28 29 26 23 20 15 11 14 24 nan nan nan nan nan nan nan nan nan nan nan nan nan nan nan nan nan nan nan 25 34 38 43 38 34 40 38 33 32 36 37 38 33 35 37 36 36 35 33 30 28 26 28 29 34 32 36 36 35
38 36 34 33 32 29 26 26 27 23 21 19 26 28 28 30 25 21 20 20 19 18 17 17 20 22 23 27 31 28 24 21 15 10 13 19 nan nan nan nan nan nan nan nan nan nan nan nan nan nan nan nan nan nan nan nan 30 38 36 32 32 37 35 34 34 36 36 33 34 35 38 34 37 37 34 34 31 28 28 31 37 39 38 38 36
38 35 33 32 29 26 25 23 25 23 22 24 22 26 27 27 24 22 20 21 20 18 16 17 19 21 22 25 29 31 27 21 13 9 10 nan nan nan nan nan nan nan nan nan nan nan nan nan nan nan nan nan nan nan nan nan nan nan 33 32 35 36 33 35 34 37 35 32 32 35 36 34 35 37 37 36 32 30 30 33 40 38 39 39 38
Wind_Direction
311 294 302 315 299 298 294 296 278 281 278 288 291 293 282 280 280 277 279 273 271 269 273 277 272 267 269 266 275 282 280 264 259 255 253 260 266 274 290 292 288 288 283 280 281 286 289 285 280 286 294 305 311 320 330 351 20 34 31 27 22 15 14 14 15 17 24 32 38 45 49 53 54 55 58 61 63 68 76 81 82 84 88 92 96
306 296 306 300 298 292 299 290 289 272 273 270 266 270 283 289 276 274 272 272 271 270 264 263 266 267 267 270 266 270 278 277 262 252 251 253 259 265 293 285 287 284 281 276 277 280 284 282 279 279 284 293 304 311 319 332 358 21 34 32 28 23 16 16 20 25 28 34 42 48 52 56 57 56 57 59 62 66 74 80 83 86 91 95 99
311 301 317 301 306 312 300 288 278 287 285 282 277 278 278 277 278 274 272 268 265 260 259 261 266 265 267 270 274 270 265 268 263 257 253 253 253 258 272 286 283 280 277 277 276 277 278 280 279 276 279 287 294 303 310 318 334 356 14 30 31 30 25 17 19 26 33 40 47 54 56 58 60 58 58 61 63 66 72 79 82 84 86 89 93
307 316 313 308 304 302 298 295 295 295 295 289 293 286 271 264 272 279 276 270 264 269 277 273 267 267 268 277 279 274 268 269 272 261 247 246 251 256 260 267 280 279 276 276 277 277 276 279 277 277 276 282 291 293 303 310 324 337 358 12 25 32 28 23 21 24 32 42 52 59 62 60 58 60 61 62 65 67 71 77 79 83 86 89 93
319 323 315 309 299 299 305 299 296 299 300 297 290 283 283 277 259 270 281 273 264 261 267 267 263 266 268 267 272 277 274 266 264 258 251 249 248 253 260 262 266 279 280 273 275 275 279 279 281 279 278 280 287 294 296 304 313 324 336 355 7 20 28 26 26 27 29 39 50 61 67 65 62 61 62 66 68 71 73 75 77 80 84 87 89
326 325 321 316 315 311 310 309 308 308 305 302 297 292 287 288 286 279 280 276 273 266 259 259 261 260 264 262 263 269 271 270 265 264 260 246 244 249 249 258 258 260 262 277 272 273 275 279 281 282 281 282 284 291 297 300 306 315 327 333 345 0 16 25 29 31 32 36 44 56 66 70 68 64 67 70 73 74 76 78 77 78 82 84 86
330 323 320 316 315 316 314 312 311 310 306 302 300 296 300 298 294 290 278 277 276 270 260 257 257 262 259 257 258 257 267 267 262 257 259 258 253 244 247 249 257 255 258 258 269 274 272 274 278 280 284 282 284 288 294 297 300 307 319 322 328 334 349 6 24 29 33 38 45 53 61 69 73 70 69 75 78 78 78 80 78 79 80 82 83
330 325 319 320 319 318 316 312 311 307 305 303 303 303 299 297 294 290 291 282 273 273 271 268 262 259 263 260 261 263 258 264 260 255 251 256 259 254 246 246 246 255 255 250 257 263 276 273 274 278 280 283 284 287 290 293 297 302 305 313 317 320 320 330 349 11 26 35 44 51 56 64 72 74 75 77 84 84 83 82 81 80 79 79 80
325 324 322 321 319 319 316 318 317 313 304 299 301 301 302 302 297 293 294 289 285 279 275 269 270 270 261 261 260 259 258 258 261 257 250 251 254 257 257 249 244 241 252 252 253 256 274 281 280 279 280 282 283 284 286 288 293 292 299 302 308 309 309 314 316 331 358 25 38 49 58 63 72 79 82 83 85 89 88 85 82 80 78 77 78
326 325 323 322 319 320 320 313 307 308 307 307 307 306 306 305 302 299 295 291 289 289 284 275 272 275 268 261 259 256 250 251 257 254 257 254 254 254 252 254 247 248 245 244 249 254 258 275 287 283 281 280 280 282 282 284 287 290 290 296 299 299 302 303 308 302 320 353 24 42 57 64 74 86 93 94 92 93 90 89 85 80 77 75 73
326 332 330 326 321 323 324 324 321 319 312 312 311 305 305 305 304 297 295 301 291 281 280 275 273 276 275 265 257 257 256 249 248 258 261 257 251 254 255 257 255 252 245 247 244 242 255 258 263 262 266 282 280 282 285 285 285 287 290 292 292 293 292 287 287 288 306 310 312 326 28 70 85 84 90 93 95 95 92 91 89 83 78 74 69
328 326 330 329 326 326 327 326 326 323 320 316 307 303 310 310 304 297 289 283 280 278 279 280 276 273 273 262 256 254 257 260 257 250 258 259 250 246 250 259 255 253 253 253 248 248 245 256 258 262 259 271 281 279 286 285 283 285 290 289 290 289 289 281 277 275 289 298 297 292 295 280 106 94 85 87 95 99 96 94 92 91 88 78 72
335 333 334 333 333 330 329 329 327 326 322 318 318 320 314 310 304 294 288 283 288 290 282 277 278 276 271 263 257 257 255 260 264 262 259 262 262 253 246 249 260 262 255 252 253 254 251 254 257 258 260 254 267 282 281 281 282 282 285 287 287 287 283 282 280 271 278 278 278 278 283 286 282 104 90 82 87 93 98 99 94 91 89 82 76
342 342 335 335 336 335 335 333 329 326 325 321 319 318 316 311 306 301 295 295 293 286 274 278 283 284 274 266 269 266 262 262 261 265 265 257 259 260 255 248 249 255 257 252 251 255 254 254 258 258 260 259 259 260 265 267 271 281 280 281 283 286 284 284 282 280 277 276 278 275 279 288 298 317 22 78 61 76 90 95 95 91 87 83 78
342 339 336 337 339 337 333 329 330 327 323 320 319 319 315 313 312 310 302 299 294 281 280 286 282 282 276 266 269 264 267 268 267 265 265 253 250 256 254 260 256 252 253 251 251 254 253 255 259 261 257 260 258 260 261 263 264 277 278 276 277 281 287 286 286 284 281 280 278 278 278 283 294 307 326 339 354 11 45 65 79 85 83 83 82
334 335 335 335 334 333 330 329 327 326 324 322 319 316 313 310 309 307 302 298 291 284 291 292 283 273 273 280 274 271 266 274 272 264 262 260 248 247 253 244 245 247 250 250 249 253 254 251 257 259 261 261 260 259 261 260 266 274 280 277 273 274 279 282 283 283 281 278 274 274 275 282 288 296 314 329 334 348 7 39 70 78 85 87 88
327 330 331 332 329 328 327 326 325 324 324 321 318 315 313 313 309 306 306 301 295 288 285 283 283 279 269 265 267 275 277 261 255 255 253 250 248 249 246 253 253 248 246 246 243 249 249 246 246 255 264 263 260 259 258 259 258 259 265 275 273 269 271 275 278 278 277 274 271 269 275 282 287 292 304 311 311 315 328 359 50 76 84 93 97
324 326 327 324 325 325 326 326 324 322 320 319 313 306 304 295 295 290 287 291 285 280 280 277 278 281 285 280 269 266 260 252 255 255 251 244 240 249 252 244 244 241 241 239 232 232 256 260 263 258 263 267 265 260 257 257 258 256 254 256 273 268 265 269 273 275 273 269 266 264 267 276 283 292 298 292 292 293 302 312 1 53 70 85 95
318 319 320 322 322 323 323 323 322 320 318 316 317 314 309 305 294 294 289 284 281 278 275 270 276 279 281 280 270 270 266 261 260 249 246 245 243 249 250 244 243 246 243 241 246 243 237 240 248 257 258 261 265 263 257 257 264 263 265 261 269 268 263 265 266 268 266 265 262 258 257 262 272 278 282 285 287 289 283 299 306 336 20 46 65
318 321 322 322 321 320 320 319 318 318 319 319 315 310 307 307 305 297 290 288 286 282 276 273 272 268 279 280 277 274 273 269 271 262 257 243 240 251 251 246 249 251 251 244 250 252 241 239 233 232 252 260 262 265 263 258 252 253 254 263 267 272 266 262 264 264 261 258 257 255 250 250 257 265 273 279 287 286 291 284 289 291 307 336 10
320 322 323 321 321 321 319 318 318 318 317 318 319 320 323 315 305 297 295 293 291 290 284 277 273 269 267 268 267 270 268 269 263 262 261 255 249 253 247 242 242 250 253 252 251 253 250 247 247 239 237 247 259 260 263 260 256 252 251 256 260 268 269 264 259 260 261 258 256 254 252 248 249 257 265 271 273 279 286 283 282 285 289 297 316
320 321 321 322 323 322 322 322 321 318 319 317 315 315 313 311 303 298 289 288 287 286 285 283 277 270 266 268 269 265 265 266 265 265 266 264 256 249 246 243 243 245 248 252 253 250 249 250 246 239 240 240 246 259 258 259 254 254 252 255 261 261 266 265 260 257 258 257 254 255 255 253 250 253 259 266 270 275 277 279 281 283 285 289 299
317 319 321 323 323 323 323 322 321 320 320 318 317 315 313 311 303 294 299 295 287 281 279 279 278 275 273 271 269 268 265 265 268 269 267 264 266 259 245 247 243 242 247 246 247 251 247 247 248 246 244 239 245 256 261 257 260 260 259 254 257 259 262 264 260 256 253 253 254 252 253 253 253 253 256 262 265 267 273 275 278 278 278 277 279
319 319 321 320 320 323 324 324 322 321 318 316 316 314 311 307 302 295 291 291 288 289 288 284 282 280 271 267 268 265 267 267 264 265 261 261 263 253 244 245 241 240 243 252 254 247 243 242 244 245 248 250 248 253 255 256 256 265 259 259 259 261 262 263 263 259 254 252 251 251 251 251 251 251 252 255 259 262 263 266 268 267 270 268 262
318 317 317 319 320 323 325 325 324 322 319 317 315 313 310 307 304 301 296 292 290 286 285 287 285 281 279 275 271 267 266 267 263 262 263 261 268 260 247 245 241 238 240 240 244 249 244 241 242 243 241 247 244 250 248 252 250 259 266 256 260 257 260 262 263 263 258 253 251 248 248 248 248 247 246 246 247 250 254 258 261 258 255 253 252
313 314 315 316 320 322 325 326 325 324 321 319 317 313 310 308 305 301 297 290 287 284 284 281 279 278 279 278 278 273 265 265 264 262 260 259 260 260 251 247 248 239 242 244 242 244 242 240 242 241 240 246 245 240 251 253 252 256 270 259 258 262 260 259 260 261 259 254 250 248 246 246 246 246 245 244 244 245 248 251 254 255 253 250 252
312 313 315 317 319 321 323 326 324 323 320 317 314 309 306 304 301 299 295 290 284 282 282 281 278 277 274 270 265 267 271 268 263 263 264 261 260 258 254 248 245 246 248 251 243 243 240 240 243 243 240 241 238 239 246 248 249 255 264 259 251 266 265 263 259 259 258 255 250 248 247 247 245 245 246 246 246 244 246 248 251 251 249 248 248
312 314 316 317 317 320 322 323 323 321 318 315 311 308 305 300 298 295 293 287 281 275 275 279 278 269 266 273 276 271 267 262 261 261 260 258 261 259 256 253 248 244 248 247 243 238 241 239 242 244 244 247 250 244 245 249 249 254 260 255 253 255 271 271 266 261 259 256 250 247 246 246 245 245 245 247 247 247 246 246 248 249 248 248 250
313 314 315 315 317 319 321 322 322 321 318 314 311 309 306 302 297 294 292 286 279 275 275 277 278 281 283 276 274 271 268 267 264 258 257 260 258 257 257 253 252 249 247 248 244 235 237 241 240 245 242 247 254 252 247 247 248 252 252 255 254 252 265 276 271 265 260 257 252 248 246 245 246 245 244 244 247 249 249 247 245 246 247 248 251
310 312 314 316 318 319 321 323 321 320 317 312 309 307 304 301 295 292 288 284 285 285 279 276 279 284 286 278 272 268 269 269 268 267 266 264 253 247 251 259 255 253 254 250 238 234 236 238 236 240 245 240 248 254 252 249 248 251 250 252 254 254 261 271 273 269 262 258 255 250 246 245 245 246 245 244 246 249 251 249 247 246 246 249 251
312 313 315 316 318 320 322 323 323 321 317 312 309 307 304 301 295 289 285 283 283 282 281 277 276 277 275 270 269 271 268 263 265 268 264 264 263 255 252 254 256 256 254 252 237 235 240 239 239 236 240 249 249 252 250 247 249 252 251 251 251 252 257 259 270 272 266 260 255 253 249 246 246 247 247 247 246 249 250 250 251 249 249 251 251
311 312 316 317 319 322 323 322 322 320 317 313 308 307 304 301 294 288 282 282 284 283 280 279 277 274 271 268 267 267 265 261 260 260 263 264 261 258 254 251 250 248 248 250 242 231 241 242 239 238 237 240 248 249 248 243 248 254 251 253 254 251 253 251 266 273 269 262 257 255 254 249 248 248 249 nan nan nan nan 252 254 253 252 252 253
315 316 317 319 321 324 324 323 321 319 317 313 310 307 305 300 295 289 284 282 282 283 283 281 277 273 270 267 265 262 258 255 256 255 253 252 254 255 256 253 248 246 249 247 242 235 237 242 237 233 235 243 247 249 246 242 242 246 248 251 255 256 253 250 252 272 272 263 255 256 255 250 247 248 250 250 nan nan nan nan nan nan nan nan nan
317 317 318 320 323 324 324 323 321 320 317 314 311 308 305 300 297 291 286 282 280 281 282 279 276 274 269 266 264 260 255 251 249 249 250 247 245 247 251 253 250 248 246 246 242 235 229 237 240 235 233 241 247 249 247 248 245 246 249 251 254 257 255 251 249 254 275 264 258 256 256 251 247 248 250 251 nan nan nan nan nan nan nan nan nan
319 320 321 323 324 326 325 324 322 320 318 316 312 309 305 302 300 295 290 286 282 280 280 277 274 271 268 266 263 261 259 249 245 246 246 248 246 245 249 249 247 251 248 248 247 238 230 232 237 236 236 242 250 252 251 249 249 250 252 256 257 257 255 251 248 246 262 270 264 260 258 253 248 248 250 251 nan nan nan nan nan nan nan nan 258
nan 322 324 325 325 326 326 325 324 321 319 317 314 309 307 306 304 300 294 288 285 283 281 279 276 273 269 266 264 261 nan nan nan nan nan nan nan nan 244 248 248 246 248 246 253 249 237 232 236 236 235 238 247 253 250 251 252 252 251 249 256 258 256 254 252 250 250 264 269 263 256 255 253 250 250 250 nan nan nan nan nan nan nan 256 257
nan nan nan nan 324 325 326 325 323 322 321 318 316 312 310 308 306 301 296 291 288 287 284 282 281 278 274 271 266 nan nan nan nan nan nan nan nan nan 241 242 239 238 240 243 246 250 246 238 235 236 235 235 242 249 253 254 255 253 249 251 258 259 256 251 249 253 260 279 275 265 256 255 255 253 252 nan nan nan nan nan 254 254 255 256 257
nan nan nan nan nan 324 325 324 320 319 320 319 315 311 309 307 305 301 298 295 293 292 289 286 285 284 281 278 273 nan nan nan nan nan nan nan nan nan nan 233 234 236 235 242 245 247 246 241 238 235 235 236 242 244 249 253 256 256 256 247 246 257 256 253 250 250 248 248 250 250 249 249 251 253 nan nan nan 252 253 254 254 255 255 256 258
nan nan nan nan nan nan 325 324 324 324 320 317 313 309 310 310 308 304 301 298 298 295 292 291 289 287 286 284 281 nan nan nan nan nan nan nan nan nan nan nan nan 231 231 234 243 245 244 238 237 237 235 238 244 246 245 246 252 253 255 254 252 254 256 252 249 250 253 253 254 256 251 248 250 248 249 252 252 252 253 254 254 255 255 257 259
nan nan nan nan nan nan 322 321 321 322 320 317 312 311 312 313 308 305 301 299 301 298 297 296 294 291 290 288 284 282 277 nan nan nan nan nan nan nan nan nan nan 230 nan 229 238 249 nan 237 235 235 240 239 241 245 246 241 250 250 250 251 250 250 250 245 247 248 249 250 246 244 250 252 250 254 255 255 256 255 254 251 254 254 257 257 260
nan nan nan nan nan 323 324 324 323 323 322 319 313 310 312 311 307 306 306 304 304 304 301 298 297 296 295 292 290 285 277 nan nan nan nan nan nan nan nan nan nan nan nan nan 229 239 242 235 229 232 234 238 242 242 243 246 252 255 251 251 251 252 248 245 242 246 247 251 250 243 245 253 253 251 249 247 246 251 248 253 250 257 257 258 nan
nan nan 323 323 326 327 326 324 323 322 320 314 305 313 313 317 313 309 310 310 309 308 306 303 305 304 300 296 293 287 nan nan nan nan nan nan nan nan nan nan nan nan nan nan nan nan 238 234 231 234 234 234 240 244 241 243 247 250 249 248 249 251 249 243 243 245 248 249 250 249 248 251 255 254 254 251 248 252 246 250 249 253 258 261 261
325 325 325 325 325 325 325 324 323 320 317 317 322 329 330 327 321 319 318 317 315 311 309 310 309 309 307 303 300 293 278 270 267 nan nan nan nan nan nan nan nan nan nan nan nan nan nan 229 227 231 235 232 237 243 242 239 244 246 248 249 245 250 251 246 242 245 246 249 248 247 247 250 256 258 256 254 252 251 250 250 260 263 262 265 269
325 323 323 323 325 326 325 324 321 319 319 317 326 328 331 328 326 324 322 320 318 314 311 314 316 314 309 306 305 299 287 274 268 260 257 nan nan nan nan nan nan nan nan nan nan nan nan nan 225 226 232 236 239 242 242 239 238 241 241 240 243 248 250 248 242 242 244 249 246 247 248 251 255 258 256 254 251 249 250 252 263 269 270 271 272
322 322 324 326 326 325 325 323 321 320 322 322 327 329 331 331 331 331 326 327 324 317 313 316 318 315 311 311 312 307 296 283 277 262 254 nan nan nan nan nan nan nan nan nan nan nan nan 230 227 225 229 236 240 246 245 239 239 240 242 244 246 247 247 246 244 241 243 249 245 246 248 251 255 256 256 254 253 250 250 256 263 272 274 275 274
323 322 323 325 325 326 326 324 322 322 322 322 329 329 332 334 337 333 333 332 326 314 308 314 317 317 316 316 317 313 303 294 284 261 245 239 nan nan nan nan nan nan nan nan nan nan nan nan nan nan 227 232 233 236 242 242 241 240 241 240 242 245 248 246 245 241 242 246 248 248 247 254 260 257 255 254 253 250 248 257 267 271 273 274 274
321 321 321 324 327 327 325 321 319 317 317 317 327 330 333 338 339 336 335 333 327 323 325 326 325 327 320 320 322 322 313 306 301 270 251 236 nan nan nan nan nan nan nan nan nan nan nan nan nan nan nan 230 231 232 236 237 240 239 241 238 239 241 239 243 243 242 242 246 250 248 250 253 257 255 251 252 252 250 250 255 270 270 272 272 274
321 322 325 326 nan 328 324 322 321 319 317 319 327 329 333 337 333 335 338 335 332 326 327 329 331 323 323 325 325 326 323 313 307 276 248 238 nan nan nan nan nan nan nan nan nan nan nan nan nan nan nan nan nan 246 237 235 240 238 237 234 233 237 235 234 240 246 244 243 246 249 244 246 250 256 252 249 251 251 252 249 266 272 272 273 273
323 323 325 327 326 327 325 321 320 319 322 320 326 328 330 329 328 335 335 327 322 323 323 319 320 327 328 329 330 331 327 323 319 294 250 236 nan nan nan nan nan nan nan nan nan nan nan nan nan nan nan nan nan nan nan 222 235 237 235 231 233 240 238 237 241 246 245 246 245 247 246 244 247 248 248 247 252 251 252 251 253 265 272 271 271
323 323 324 327 328 323 321 324 310 307 307 301 319 324 325 327 331 330 326 322 325 328 332 324 325 329 332 335 337 337 334 329 328 306 262 238 nan nan nan nan nan nan nan nan nan nan nan nan nan nan nan nan nan nan nan nan 241 243 244 241 232 232 234 237 237 244 243 244 245 248 247 242 244 245 244 247 248 247 253 252 252 250 256 259 263
323 324 326 325 323 319 310 309 314 315 310 301 317 315 315 317 325 324 323 323 326 329 326 328 330 332 335 334 341 344 342 336 338 315 274 nan nan nan nan nan nan nan nan nan nan nan nan nan nan nan nan nan nan nan nan nan nan nan 246 243 238 236 234 233 235 240 241 241 243 251 247 244 244 245 246 247 247 248 252 253 251 251 253 253 253